Home > Time Zones > World Clock > Weather > India > Unnao > Past weeks

Flag for India Weather past 2 weeks in Unnao, Uttar Pradesh, India

Now
102 °F

Scattered clouds.


Feels Like: 122 °F
Forecast: 86 / 102 °F
Wind: 10 mph from Northwest

Location: Lucknow / Amausi

Current Time: Jul 4, 2015 at 3:48:59 PM

Latest Report: Jul 4, 2015 at 3:00 PM


Visibility: 3 mi

Pressure: 29.47 "Hg

Humidity: 48%

Dew point: 79 °F

Location of UnnaoLocation

Historic Weather in Unnao — Graph

°F

Unnao temperature yesterday

Maximum temperature yesterday: 104 °F (at 4:00 PM)
Minimum temperature yesterday: 84 °F (at 5:30 AM)
Average temperature yesterday: 95 °F

Past Weeks' High & Low Weather Summary

 TemperatureHumidityPressure
High108 °F (Jun 20, 3:00 PM)100% (Jun 29, 11:30 AM)29.65 "Hg (Jun 29, 11:30 AM)
Low75 °F (Jun 29, 8:00 PM)36% (Jun 20, 3:00 PM)29.27 "Hg (Jun 25, 4:30 PM)
Average91 °F66%29.48 "Hg
* Reported Jun 19 3:30 PM — Jul 4 2:30 PM, Unnao, Weather by CustomWeather, © 2015

Note: Actual official high and low records may vary slightly from our data, if they occured in-between our weather recording intervals... More about our weather records

Advertising

Unnao weather history for previous 24 hours

 ConditionsComfort  
Time TempWeatherWind HumidityBarometerVisibility
2:30 PM
Sat, Jul 4
104 °FScattered clouds.7 mph43%29.47 "Hg3 mi
2:00 PM102 °FScattered clouds.8 mph45%29.47 "Hg3 mi
1:30 PM102 °FScattered clouds.8 mph45%29.47 "Hg3 mi
1:00 PM102 °FHaze.12 mph45%29.50 "Hg3 mi
12:30 PM100 °FHaze.9 mph47%29.50 "Hg3 mi
12:00 PM99 °FHaze.14 mph47%29.50 "Hg3 mi
11:30 AM99 °FHaze.15 mph50%29.53 "Hg3 mi
11:00 AM97 °FHaze.15 mph56%29.53 "Hg3 mi
10:30 AM97 °FHaze.14 mph53%29.53 "Hg3 mi
10:00 AM97 °FHaze.14 mph50%29.53 "Hg3 mi
9:30 AM95 °FHaze.14 mph56%29.53 "Hg3 mi
8:30 AM91 °FHaze.9 mph63%29.53 "Hg3 mi
8:00 AM91 °FHaze.9 mph63%29.53 "Hg2 mi
7:30 AM90 °FHaze.9 mph67%29.53 "Hg2 mi
7:00 AM88 °FHaze.5 mph70%29.50 "Hg2 mi
6:30 AM86 °FHaze.3 mph75%29.50 "Hg2 mi
6:00 AM84 °FHaze.5 mph79%29.50 "Hg2 mi
5:30 AM84 °FPassing clouds.5 mph79%29.47 "Hg2 mi
5:00 AM86 °FPassing clouds.6 mph75%29.47 "Hg2 mi
4:00 AM90 °FPassing clouds.7 mph67%29.47 "Hg2 mi
3:00 AM90 °FPassing clouds.6 mph71%29.47 "Hg2 mi
2:00 AM90 °FPassing clouds.No wind71%29.47 "Hg2 mi
1:00 AM90 °FPassing clouds.No wind71%29.50 "Hg2 mi
12:00 AM91 °FPassing clouds.No wind67%29.53 "Hg2 mi
10:00 PM
Fri, Jul 3
93 °FPassing clouds.2 mph67%29.53 "Hg2 mi
9:00 PM93 °FPassing clouds.2 mph67%29.50 "Hg2 mi
8:30 PM95 °FPassing clouds.2 mph63%29.50 "Hg2 mi
8:00 PM95 °FPassing clouds.2 mph63%29.50 "Hg2 mi
7:30 PM97 °FScattered clouds.2 mph60%29.47 "Hg2 mi
7:00 PM97 °FScattered clouds.2 mph60%29.47 "Hg2 mi
6:30 PM97 °FHaze.2 mph63%29.45 "Hg2 mi
6:00 PM99 °FScattered clouds.2 mph57%29.45 "Hg2 mi
5:30 PM99 °FScattered clouds.2 mph57%29.47 "Hg2 mi
4:30 PM102 °FBroken clouds.17 mph48%29.47 "Hg1 mi
4:00 PM104 °FScattered clouds.10 mph45%29.47 "Hg3 mi
3:00 PM102 °FScattered clouds.8 mph51%29.53 "Hg3 mi
Weather by CustomWeather, © 2015

See weather overviewHow to use our weather pages